[[{"header":{"parameterUnit":"m.s-1","parameterCategory":1,"la1":30.2991,"la2":30.254,"lo1":-89.0895,"lo2":-89.0444,"dy":0.0017,"dx":0.0017,"nx":28,"ny":28,"refTime":"2025-01-31T09:00:00:Z","depth":0,"parameterNumber":2,"parameterNumberName":"U-component_of_WINDS"},"data":[0,0,0,0,0,0,0,0,0,0,0,0,0,0,0,0,0,0,0,0,0,0,0,0,0,0,0,0,0,0,0,0,0,0,0,0,0,0,0,0,0,0,0,0,0,0,0,0,0,0,0,0,0,0,0,0,0,0,2.2842,2.2841,0,2.2743,2.2742,2.2741,2.2646,2.2645,2.2644,2.2643,2.2547,2.2545,2.2544,0,0,0,0,0,0,0,0,0,0,0,0,0,2.2956,2.2954,2.2842,2.284,2.2839,2.2743,2.2742,2.274,2.2646,2.2645,2.2643,2.2642,2.2547,2.2545,2.2544,0,0,0,0,0,0,0,0,0,0,0,0,0,2.2887,2.2953,2.2842,2.2781,2.2774,2.2743,2.2742,2.274,2.2647,2.2645,2.2643,2.2641,2.2548,2.2546,2.2543,2.2567,0,0,2.2537,2.2536,0,0,0,0,0,0,0,0,2.2891,2.2883,2.2791,2.2785,2.2777,2.2705,2.2746,2.2682,2.2647,2.2695,2.2642,2.264,2.2601,2.2594,2.258,2.2562,2.2558,2.2537,2.2535,2.2535,2.2534,0,0,0,0,0,0,0,2.2896,2.2886,2.2803,2.279,2.2781,2.276,2.2748,2.2734,2.266,2.2691,2.2684,2.2673,2.2597,2.2582,2.2577,2.2557,2.2537,2.2535,2.2534,2.2533,2.2557,2.2559,0,0,0,0,0,0,2.2909,2.2891,2.2806,2.28,2.283,2.276,2.2746,2.273,2.266,2.2647,2.2675,2.2669,2.2587,2.258,2.2573,2.2598,2.2535,2.2533,2.2531,2.2555,2.2557,2.2559,0,0,0,0,0,0,2.2912,2.2902,2.281,2.2843,2.283,2.276,2.2742,2.2729,2.2714,2.2647,2.2634,2.2673,2.2585,2.2576,2.2569,2.2593,2.2532,2.253,2.2553,2.2556,2.2558,2.2647,0,0,0,0,0,0,2.2915,2.2904,2.291,2.2844,2.2828,2.2806,2.2743,2.2728,2.271,2.2702,2.2642,2.2631,2.2583,2.2573,2.2567,2.2589,2.2528,2.255,2.2554,2.2557,2.2641,2.2652,2.2661,0,0,0,0,0,2.292,2.2939,2.2911,2.2901,2.2835,2.2807,2.2798,2.2742,2.2712,2.2719,2.2677,2.2632,2.2592,2.2573,2.2566,2.2588,2.2549,2.2553,2.2557,2.2637,2.265,2.2661,0,0,0,0,0,0,2.3011,2.2929,2.2897,2.2895,2.2859,2.2791,2.2798,2.2757,2.273,2.2723,2.2656,2.2643,2.2645,2.2615,2.2596,2.2608,2.2564,2.2567,2.2627,2.2639,2.2649,2.2657,2.2526,0,0,0,0,0,2.3031,2.3013,2.2944,2.2949,2.2932,2.2869,2.2855,2.2815,2.2775,2.2759,2.2716,2.2681,2.266,2.2648,2.2625,2.2637,2.2624,2.2648,2.2658,2.2667,2.2671,2.2678,2.2688,2.2574,2.2573,2.2573,0,0,2.3071,2.3025,2.3018,2.2966,2.2933,2.2919,2.2856,2.2843,2.2833,2.2758,2.2748,2.2716,2.2673,2.2676,2.2675,2.2651,2.27,2.2673,2.268,2.2679,2.2683,2.2694,2.2704,2.2576,2.2576,2.2575,0,0,2.3139,2.3101,2.3102,2.3071,2.3021,2.2979,2.298,2.2919,2.2894,2.2884,2.2828,2.2816,2.2781,2.2753,2.2734,2.2795,2.2754,2.2789,2.2842,2.285,2.2859,2.2867,2.289,2.2899,2.2793,2.2793,2.2793,0,2.3196,2.317,2.3109,2.3099,2.308,2.301,2.3013,2.2986,2.2933,2.2922,2.2895,2.2852,2.2818,2.2815,2.283,2.2816,2.2817,2.2796,2.2862,2.2869,2.2876,2.2898,2.2906,2.2798,2.2798,2.2797,2.2797,0,2.3245,2.3229,2.3236,2.3185,2.3166,2.3164,2.3104,2.3092,2.3055,2.3017,2.3009,2.2966,2.2934,2.293,2.2893,2.2923,2.291,2.2874,2.2829,2.2892,2.2912,2.292,2.2805,2.2803,2.2802,2.2801,0,0,2.3365,2.3282,2.3286,2.3263,2.3205,2.3192,2.3188,2.3156,2.3149,2.3115,2.3111,2.3085,2.3052,2.3031,2.2991,2.2997,2.3051,2.296,2.2958,2.298,2.3084,2.3112,2.3123,2.3023,2.3024,2.3025,2.3088,0,2.3424,2.3409,2.3355,2.3358,2.3344,2.3279,2.3275,2.3241,2.3206,2.3191,2.3153,2.3136,2.3092,2.3079,2.3083,2.3044,2.3071,2.3038,2.3022,2.3022,2.3035,2.3132,2.3162,2.3223,2.3095,2.3096,2.3097,0,2.349,2.346,2.3461,2.3406,2.3398,2.3395,2.3363,2.3349,2.331,2.3284,2.3262,2.3217,2.3212,2.317,2.3163,2.3142,2.3132,2.3112,2.3113,2.311,2.3064,2.3134,2.3241,2.3251,2.3108,2.3107,2.3107,0,2.358,2.354,2.3536,2.3519,2.3454,2.3454,2.3428,2.3386,2.3372,2.3344,2.3335,2.3308,2.3294,2.3275,2.3226,2.3199,2.3226,2.3178,2.3207,2.3208,2.3215,2.3216,2.3324,2.3208,2.3208,2.3207,2.3207,0,2.3651,2.3655,2.3576,2.3574,2.3578,2.3517,2.3523,2.349,2.3455,2.3447,2.339,2.3385,2.3319,2.3307,2.3269,2.3271,2.3264,2.3245,2.3235,2.3251,2.3254,2.3244,2.3239,2.321,2.3209,2.3209,2.3208,0,2.3752,2.3699,2.3691,2.3631,2.3616,2.3622,2.3571,2.3568,2.353,2.3522,2.3516,2.3458,2.3441,2.339,2.336,2.3335,2.3349,2.3329,2.3362,2.3356,2.3387,2.3386,2.3494,2.3506,2.3382,2.3383,2.3384,0,2.3802,2.3803,2.3743,2.3734,2.3709,2.3694,2.3679,2.362,2.3607,2.3565,2.3568,2.3546,2.3526,2.3503,2.3459,2.3437,2.3417,2.3457,2.3414,2.343,2.342,2.3421,2.3422,2.3467,2.3468,2.347,2.3471,0,2.3896,2.3871,2.385,2.3821,2.3804,2.3779,2.3751,2.3747,2.3682,2.367,2.3652,2.3637,2.3607,2.3588,2.3559,2.3534,2.3493,2.3485,2.349,2.3507,2.3527,2.3518,2.3389,2.3482,2.3481,2.348,2.348,2.3479,2.3974,2.3973,2.3931,2.3911,2.3884,2.386,2.3855,2.3817,2.38,2.377,2.3737,2.3724,2.3688,2.3645,2.3624,2.3614,2.3591,2.3599,2.3601,2.3605,2.3613,2.3528,2.3609,2.3608,2.3608,2.3607,2.3607,0,2.4067,2.4037,2.4019,2.3981,2.3967,2.3928,2.3895,2.3886,2.3874,2.3844,2.3825,2.3806,2.3788,2.3744,2.3722,2.3723,2.3704,2.3719,2.3719,2.3715,2.3633,2.3631,2.3735,2.3735,2.3735,2.3735,2.3735,2.3735,2.4113,2.4111,2.4081,2.4066,2.4036,2.4022,2.4007,2.3985,2.3961,2.3942,2.3926,2.3897,2.3862,2.3837,2.382,2.3807,2.3803,2.3825,2.3807,2.3732,2.372,2.3708,2.3706,2.3824,2.3824,2.3889,2.389,2.3891]},{"header":{"parameterUnit":"m.s-1","parameterCategory":1,"la1":30.2991,"la2":30.254,"lo1":-89.0895,"lo2":-89.0444,"dy":0.0017,"dx":0.0017,"nx":28,"ny":28,"refTime":"2025-01-31T09:00:00:Z","depth":0,"parameterNumber":3,"parameterNumberName":"V-component_of_WINDS"},"data":[0,0,0,0,0,0,0,0,0,0,0,0,0,0,0,0,0,0,0,0,0,0,0,0,0,0,0,0,0,0,0,0,0,0,0,0,0,0,0,0,0,0,0,0,0,0,0,0,0,0,0,0,0,0,0,0,0,0,1.9096,1.9097,0,1.9213,1.9214,1.9215,1.9256,1.9255,1.9255,1.9254,1.9373,1.9376,1.938,0,0,0,0,0,0,0,0,0,0,0,0,0,1.8908,1.8911,1.9096,1.9097,1.9099,1.9213,1.9214,1.9216,1.9256,1.9255,1.9255,1.9254,1.9371,1.9376,1.938,0,0,0,0,0,0,0,0,0,0,0,0,0,1.9003,1.8912,1.9096,1.9133,1.9137,1.9212,1.9214,1.9216,1.9256,1.9255,1.9254,1.9254,1.937,1.9375,1.938,1.9427,0,0,1.9397,1.9399,0,0,0,0,0,0,0,0,1.8998,1.901,1.9126,1.913,1.9135,1.9219,1.9191,1.9287,1.9256,1.9211,1.9254,1.9253,1.9322,1.9331,1.9355,1.9433,1.9438,1.9397,1.9401,1.9403,1.9404,0,0,0,0,0,0,0,1.8991,1.9005,1.9142,1.9127,1.9133,1.9143,1.9156,1.9209,1.9269,1.9215,1.9218,1.9231,1.9324,1.9349,1.9358,1.944,1.9397,1.9402,1.9405,1.9407,1.9564,1.9565,0,0,0,0,0,0,1.8978,1.9,1.9138,1.9146,1.9064,1.9147,1.9162,1.9193,1.9268,1.9279,1.9232,1.9233,1.934,1.9351,1.9362,1.9423,1.9403,1.9408,1.9411,1.9563,1.9564,1.9565,0,0,0,0,0,0,1.8974,1.899,1.9134,1.9074,1.9093,1.9151,1.9186,1.9195,1.922,1.9281,1.9292,1.9246,1.934,1.9354,1.9411,1.9428,1.941,1.9415,1.9562,1.9563,1.9565,1.9545,0,0,0,0,0,0,1.8969,1.8989,1.9007,1.9074,1.9096,1.9181,1.9187,1.9198,1.923,1.9232,1.9298,1.9308,1.9341,1.9403,1.9417,1.9435,1.9419,1.9561,1.9563,1.9564,1.9544,1.9545,1.9546,0,0,0,0,0,1.8962,1.8996,1.9008,1.9024,1.912,1.9182,1.9194,1.9232,1.9231,1.925,1.9289,1.9306,1.9423,1.9408,1.9424,1.9444,1.956,1.9562,1.9564,1.9544,1.9545,1.9546,0,0,0,0,0,0,1.8929,1.9005,1.9019,1.9076,1.9122,1.9188,1.9214,1.9232,1.9279,1.928,1.9324,1.9339,1.9392,1.9424,1.9406,1.9494,1.9493,1.9498,1.9472,1.9474,1.9475,1.9466,1.9424,0,0,0,0,0,1.8928,1.8972,1.9037,1.9081,1.9103,1.9154,1.9183,1.9208,1.9258,1.9277,1.9321,1.9368,1.9416,1.9446,1.9494,1.9549,1.9564,1.957,1.9571,1.9572,1.9576,1.961,1.9614,1.9572,1.9572,1.9572,0,0,1.8927,1.8975,1.9,1.9075,1.9114,1.9159,1.9171,1.9217,1.9251,1.9284,1.9341,1.9375,1.943,1.9487,1.9514,1.9515,1.9591,1.9575,1.9575,1.9579,1.9612,1.9616,1.962,1.9574,1.9573,1.9573,0,0,1.8949,1.8989,1.9031,1.907,1.9129,1.9163,1.9173,1.9237,1.9261,1.9318,1.9345,1.9385,1.9467,1.9506,1.9536,1.9575,1.9592,1.9589,1.9594,1.9626,1.963,1.9633,1.9648,1.9653,1.9593,1.9592,1.9592,0,1.894,1.9009,1.9049,1.9096,1.9129,1.9161,1.9205,1.924,1.9311,1.9334,1.9334,1.9438,1.9477,1.9544,1.9554,1.9577,1.9591,1.9582,1.9626,1.9629,1.9633,1.9648,1.9653,1.9592,1.9592,1.9592,1.9592,0,1.8997,1.9044,1.9071,1.914,1.9176,1.922,1.9267,1.9299,1.9321,1.9355,1.9415,1.9464,1.9522,1.954,1.9562,1.9611,1.961,1.9617,1.9617,1.9636,1.9651,1.9656,1.9591,1.9591,1.9591,1.9591,0,0,1.9,1.9092,1.9101,1.9134,1.9202,1.924,1.9286,1.9344,1.9371,1.9419,1.946,1.9528,1.9536,1.9571,1.9597,1.9625,1.9655,1.963,1.9632,1.9634,1.9714,1.9709,1.9714,1.9666,1.9667,1.9668,1.971,0,1.9032,1.9116,1.9154,1.9222,1.9267,1.9299,1.934,1.9386,1.942,1.9463,1.95,1.9548,1.9554,1.9576,1.9605,1.9645,1.9671,1.9642,1.9705,1.9707,1.9691,1.9722,1.9716,1.9753,1.9715,1.9716,1.9717,0,1.9079,1.9129,1.9201,1.9266,1.9286,1.9322,1.9379,1.942,1.9474,1.9496,1.9536,1.9562,1.9612,1.9608,1.9678,1.9658,1.9686,1.9709,1.9712,1.972,1.9714,1.9732,1.9765,1.9771,1.9726,1.9726,1.9725,0,1.9076,1.9161,1.9216,1.9243,1.9319,1.9344,1.9376,1.943,1.9463,1.9513,1.9535,1.9589,1.962,1.9662,1.9702,1.9695,1.9769,1.9768,1.979,1.9789,1.9805,1.9804,1.9844,1.9821,1.9821,1.9821,1.9821,0,1.9108,1.9151,1.9216,1.925,1.93,1.9343,1.9391,1.9427,1.9474,1.9515,1.9546,1.9584,1.9635,1.968,1.9711,1.9766,1.9779,1.9799,1.9807,1.9797,1.9795,1.9817,1.9816,1.9822,1.9822,1.9822,1.9821,0,1.9113,1.9158,1.922,1.9288,1.9306,1.934,1.9398,1.9433,1.9468,1.952,1.9535,1.959,1.9645,1.9689,1.976,1.9782,1.9839,1.9848,1.9821,1.9826,1.9847,1.9845,1.9904,1.9914,1.9882,1.9882,1.9883,0,1.9131,1.9165,1.9237,1.9268,1.9301,1.9349,1.9384,1.9428,1.9463,1.9528,1.9554,1.9611,1.9659,1.9745,1.9792,1.9847,1.9858,1.9875,1.9866,1.9856,1.986,1.9858,1.9862,1.9876,1.9876,1.9876,1.9876,0,1.9158,1.9179,1.9228,1.9285,1.9326,1.9372,1.942,1.9443,1.9496,1.9534,1.9591,1.9628,1.9702,1.9758,1.9819,1.9853,1.9874,1.9878,1.9887,1.9877,1.9861,1.9872,1.9825,1.9877,1.9877,1.9877,1.9877,1.9877,1.9171,1.9204,1.926,1.9314,1.9355,1.9399,1.9435,1.9476,1.9524,1.9588,1.9611,1.967,1.9725,1.9808,1.9843,1.9889,1.9891,1.9903,1.9906,1.9909,1.9908,1.9853,1.99,1.99,1.99,1.99,1.99,0,1.9201,1.9239,1.9288,1.9355,1.9398,1.9414,1.9468,1.9503,1.9554,1.9604,1.9651,1.9717,1.9773,1.9824,1.9882,1.991,1.9921,1.9924,1.9923,1.9931,1.9902,1.989,1.9914,1.9914,1.9914,1.9914,1.9914,1.9914,1.9222,1.9279,1.9307,1.9385,1.9423,1.9481,1.9511,1.9552,1.9592,1.9665,1.9712,1.9745,1.9796,1.9859,1.9911,1.9925,1.9945,1.9946,1.9962,1.9935,1.9933,1.9931,1.992,1.9949,1.9949,1.9987,1.9987,1.9988]}]]